Regional Weather Roundup
Issued by NWS

Home | Current Version | Previous Version | Graphics & Text | Print | Product List | Glossary On
Versions: 1 2 3 4 5 6 7 8 9 10 11 12 13 14 15 16 17 18 19 20 21 22 23 24 25 26 27 28 29 30 31 32 33 34 35 36 37 38 39 40 41 42 43 44 45 46 47 48 49 50
000
ASUS43 KIND 310709
RWRIN

WEATHER ROUNDUP FOR INDIANA
NATIONAL WEATHER SERVICE INDIANAPOLIS IN
300 AM EDT FRI JUL 31 2015

NOTE: "FAIR" INDICATES FEW OR NO CLOUDS BELOW 12,000 FEET WITH NO
SIGNIFICANT WEATHER AND/OR OBSTRUCTIONS TO VISIBILITY.

* - STATION DOES NOT REPORT WEATHER SUCH AS PRECIPITATION OR FOG.

+ - STATION NOT QUALITY CONTROLLED BY THE NATIONAL WEATHER SERVICE.
    USE DATA WITH CAUTION...ESPECIALLY DEWPOINT AND RELATIVE
    HUMIDITY OBSERVATIONS.

INZ001>003-010>013-019-020-310800-
NORTHWEST INDIANA

CITY           SKY/WX    TMP DP  RH WIND       PRES   REMARKS
GARY /AIRPORT/ CLEAR     67  63  88 CALM      30.04R
KNOX *+        CLEAR     68  61  77 W8        30.02R
LA PORTE +     CLEAR     68  62  80 W6        30.03S
MICHIGAN CITY+ CLEAR     64  59  82 S5        30.03R
MONTICELLO +   CLEAR     66  64  94 CALM      30.04S
RENSSELAER +   CLEAR     68  66  94 SW6       30.06R
VALPARAISO     CLEAR     67  61  81 W7        30.04R

$$

LMZ046-743>745-310800-
SOUTHERN LAKE MICHIGAN

STATION/POSITION TIME  TEMP    WIND        PRES    WAVE
                       AIR SEA DIR/SP/G            HT
                 (UTC) (F)     (DEG/KT/KT) (MB)    (FT)
BURNS HARBOR     0600   76     240/  9/ 12 1016.9R
MICHIGAN CITY    0600   75     220/ 14/ 15   N/A
5NW MICH CITY    0700   76 74  300/ 10/ 12   N/A     2

$$

INZ004-005-014>016-021>024-310800-
NORTH CENTRAL INDIANA

CITY           SKY/WX    TMP DP  RH WIND       PRES   REMARKS
GOSHEN         CLEAR     65  60  84 SW3       30.01S
LOGANSPORT +   CLEAR     63  59  88 SW5       30.05S
PERU/GRISSOM   CLEAR     67  62  84 W8        30.04S
ROCHESTER +    CLEAR     68  63  83 SW5       30.04S
SOUTH BEND     CLEAR     67  60  78 SW6       30.02S
WARSAW +       CLEAR     68  59  73 W6        30.02S

$$

INZ006>009-017-018-025>027-310800-
NORTHEAST INDIANA

CITY           SKY/WX    TMP DP  RH WIND       PRES   REMARKS
ANGOLA *+      CLEAR     63  57  82 CALM      30.01S
AUBURN +       CLEAR     68  55  64 SW5       30.02F
FORT WAYNE     PTCLDY    66  60  81 SW8       30.03S
HUNTINGTON +   CLEAR     67  62  83 W5        30.03S

$$

INZ028-029-035-036-043>045-051>053-310800-
WEST CENTRAL INDIANA

CITY           SKY/WX    TMP DP  RH WIND       PRES   REMARKS
CRAWFORDSVL +  CLEAR     63  63 100 CALM        N/A
GREENCASTLE +  CLEAR     63  59  88 CALM      30.09S
LAFAYETTE      CLEAR     65  63  93 W3        30.05S
TERRE HAUTE    CLEAR     64  62  93 CALM      30.08S

$$

INZ030>032-037>040-046>048-054>057-064-065-310800-
CENTRAL INDIANA

CITY           SKY/WX    TMP DP  RH WIND       PRES   REMARKS
FRANKFORT +    CLEAR    N/A N/A N/A CALM      30.08S
GREENWOOD *+   CLEAR     63  61  94 CALM      30.08S
INDIANAPOLIS   CLEAR     67  61  81 SW6       30.05
-EAGLE CREEK   CLEAR     67  62  84 W3        30.06S
KOKOMO *+      CLEAR     68  61  77 W8        30.05S
MARION +       CLEAR     62  60  92 CALM      30.05S
MT COMFORT *+  CLEAR     63 N/A N/A CALM      30.07S
SHELBYVILLE    CLEAR     65  61  87 S3        30.06S
ZIONSVILLE +   CLEAR     67  60  77 W6        30.08S

$$

INZ033-034-041-042-049-050-058-059-310800-
EAST CENTRAL INDIANA

CITY           SKY/WX    TMP DP  RH WIND       PRES   REMARKS
MUNCIE         CLEAR     66  61  84 W7        30.05S

$$

INZ060-061-067>069-081>083-085>088-310800-
SOUTHWEST INDIANA

CITY           SKY/WX    TMP DP  RH WIND       PRES   REMARKS
EVANSVILLE     CLEAR     74  64  71 NW6       30.09S
HUNTINGBURG *+ CLEAR     66  63  88 CALM      30.08F
WASHINGTON +   CLEAR     69  65  86 W5        30.08S

$$

INZ062-063-066-070>080-084-089>092-310800-
SOUTH CENTRAL AND SOUTHEAST INDIANA

CITY           SKY/WX    TMP DP  RH WIND       PRES   REMARKS
BLOOMINGTON    CLEAR     64  62  93 CALM      30.08F
MADISON *+     CLEAR     63  61  94 CALM      30.10S
NORTH VERNON + CLEAR     64  64 100 CALM      30.08S
SEYMOUR +      CLEAR     63  63 100 CALM      30.07S FOG

$$



USA.gov is the U.S. government's official web portal to all federal, state and local government web resources and services.